Track COSMOS 2041 now! 10-day predictions COSMOS 2041 is classified as:
1 20235U 89074D 21061.07917309 .00000005 00000-0 -29627-4 0 9992 2 20235 82.5873 7.9483 0008646 167.6083 203.1657 12.64782644452215